This demonstration page uses our WeatherBlox Daily Observations layout. Learn more.

Left ArrowRight Arrow

Hourly Observations for August 6, 2021

Temp ( °F °C ) Dew Point ( °F °C ) Humidity (%) Winds ( mph kmh ) Pressure ( in mb ) Visibility ( mi km ) Precip ( " mm )
12:15 am 00:15 Clear 71 21.8 54 12 54 54 S 6 9 29.85 1011 10 16 N/A
12:35 am 00:35 Clear 74 23.2 55 12.6 51 51 S 6 9 29.82 1010 10 16 N/A
12:55 am 00:55 Clear 72 22.4 55 13 55 55 N N/A 29.83 1010 10 16 N/A
1:15 am 01:15 Clear 73 22.5 57 14 59 59 S 5 7 29.84 1011 10 16 N/A
1:35 am 01:35 Clear 73 22.5 58 14.4 60 60 S 7 11 29.82 1010 10 16 N/A
1:55 am 01:55 Clear 74 23.2 58 14.3 57 57 S 5 7 29.82 1010 10 16 N/A
2:15 am 02:15 Clear 74 23.5 57 14.1 56 56 SSE 6 9 29.80 1009 10 16 N/A
2:35 am 02:35 Clear 73 22.7 57 13.9 58 58 SSE 5 7 29.80 1009 10 16 N/A
2:55 am 02:55 Clear 69 20.7 57 14 66 66 N N/A 29.82 1010 10 16 N/A
3:15 am 03:15 Clear 71 21.8 57 13.8 61 61 SW 3 6 29.81 1009 10 16 N/A
3:35 am 03:35 Clear 71 21.5 57 13.7 61 61 N N/A 29.82 1010 10 16 N/A
3:55 am 03:55 Clear 68 20.2 57 13.8 67 67 N N/A 29.83 1010 10 16 N/A
4:15 am 04:15 Clear 69 20.3 57 13.9 67 67 N N/A 29.83 1010 10 16 N/A
4:35 am 04:35 Clear 71 21.7 56 13.5 60 60 W 3 6 29.82 1010 10 16 N/A
4:55 am 04:55 Clear 64 17.5 57 14.1 81 81 N 5 7 29.85 1011 10 16 N/A
5:15 am 05:15 Clear 62 16.8 57 14.1 84 84 N N/A 29.86 1011 10 16 N/A
5:35 am 05:35 Clear 62 16.7 57 13.7 83 83 S 6 9 29.86 1011 10 16 N/A
5:55 am 05:55 Clear 61 16.3 57 13.9 86 86 N N/A 29.86 1011 10 16 N/A
6:15 am 06:15 Clear 63 17 57 13.8 82 82 N N/A 29.86 1011 10 16 N/A
6:35 am 06:35 Clear 61 16.3 56 13.6 84 84 N N/A 29.85 1011 10 16 N/A
6:55 am 06:55 Sunny 62 16.4 57 14 86 86 N N/A 29.86 1011 7 11 N/A
7:15 am 07:15 Sunny 61 16.1 57 14 87 87 E 3 6 29.87 1011 7 11 N/A
7:35 am 07:35 Sunny 63 17.1 59 15.1 88 88 ENE 5 7 29.87 1011 7 11 N/A
7:55 am 07:55 Sunny 64 17.5 60 15.5 88 88 ENE 6 9 29.87 1012 7 11 N/A
8:15 am 08:15 Sunny 65 18.3 60 15.7 85 85 NE 5 7 29.88 1012 10 16 N/A
8:35 am 08:35 Sunny 68 20.1 60 15.8 76 76 ENE 3 6 29.85 1011 10 16 N/A
8:55 am 08:55 Sunny 69 20.6 60 15.7 74 74 E 6 9 29.85 1011 10 16 N/A
9:15 am 09:15 Sunny 70 21.3 61 16.1 72 72 E 5 7 29.84 1011 10 16 N/A
9:35 am 09:35 Sunny 73 22.8 62 16.6 68 68 ESE 6 9 29.83 1010 10 16 N/A
9:55 am 09:55 Sunny 75 23.8 62 16.8 65 65 ESE 8 13 29.81 1009 10 16 N/A
10:15 am 10:15 Sunny 74 23.5 61 16.3 64 64 ESE 7 11 29.82 1010 10 16 N/A
10:35 am 10:35 Sunny 75 24 62 16.8 64 64 ESE 6 9 29.82 1010 10 16 N/A
10:55 am 10:55 Sunny 74 23.6 61 16.1 63 63 SE 6 9 29.81 1010 10 16 N/A
11:15 am 11:15 Sunny 77 25 62 16.8 60 60 SSE 10 17 29.80 1009 10 16 N/A
11:35 am 11:35 Sunny 79 26.3 63 17.1 57 57 SSE 13 20 29.78 1008 10 16 N/A
11:55 am 11:55 Sunny 81 27.1 63 17 54 54 SSE 12 19 29.78 1009 10 16 N/A
12:15 pm 12:15 Sunny 82 27.9 65 18.1 55 55 SSE 12 19 29.78 1008 10 16 N/A
12:35 pm 12:35 Sunny 83 28.5 66 18.9 56 56 SE 13 20 29.76 1008 10 16 N/A
12:55 pm 12:55 Sunny 84 29.1 66 18.8 54 54 SSE 15 24 29.75 1007 10 16 N/A
1:15 pm 13:15 Sunny 85 29.5 65 18.5 52 52 SSE 16 26 29.74 1007 10 16 N/A
1:35 pm 13:35 Sunny 86 30.1 66 18.8 51 51 SE 15 24 29.73 1007 10 16 N/A
1:55 pm 13:55 Sunny 87 30.6 66 19 50 50 SSE 14 22 29.72 1007 10 16 N/A
2:15 pm 14:15 Sunny 88 31.1 67 19.2 49 49 SSE 15 24 29.71 1006 10 16 N/A
2:35 pm 14:35 Sunny 89 31.5 67 19.2 48 48 SSE 17 28 29.70 1006 10 16 N/A
2:55 pm 14:55 Sunny 90 32.3 66 18.9 45 45 SSE 16 26 29.68 1005 10 16 N/A
3:15 pm 15:15 Sunny 91 33 66 19 44 44 SSE 17 28 29.67 1005 10 16 N/A
3:35 pm 15:35 Sunny 93 33.7 66 18.7 41 41 SSE 17 28 29.65 1004 10 16 N/A
3:55 pm 15:55 Sunny 92 33.6 65 18.2 40 40 SSE 18 30 29.65 1004 10 16 N/A
4:15 pm 16:15 Sunny 93 34.1 64 17.6 37 37 SSE 20 31 29.63 1003 10 16 N/A
4:35 pm 16:35 Sunny 94 34.4 63 17.2 36 36 SSE 16 26 29.63 1003 10 16 N/A
4:55 pm 16:55 Sunny 94 34.4 63 17.1 36 36 SSE 17 28 29.63 1003 10 16 N/A
5:15 pm 17:15 Sunny 94 34.2 64 17.6 37 37 SSE 16 26 29.62 1003 10 16 N/A
5:35 pm 17:35 Sunny 93 34 63 17.1 36 36 SSE 16 26 29.62 1003 10 16 N/A
5:55 pm 17:55 Sunny 93 33.9 64 17.6 38 38 SSE 13 20 29.61 1003 10 16 N/A
6:15 pm 18:15 Sunny 92 33.5 63 17.1 38 38 SSE 14 22 29.61 1003 10 16 N/A
6:35 pm 18:35 Sunny 91 32.7 61 16.1 37 37 SSE 14 22 29.61 1003 10 16 N/A
6:55 pm 18:55 Sunny 91 32.6 62 16.4 38 38 SSE 14 22 29.60 1002 10 16 N/A
7:15 pm 19:15 Sunny 88 31.3 61 16 40 40 SSE 14 22 29.61 1003 10 16 N/A
7:35 pm 19:35 Sunny 87 30.7 61 16.2 42 42 SE 9 15 29.61 1003 10 16 N/A
7:55 pm 19:55 Sunny 86 30 62 16.7 45 45 SE 10 17 29.62 1003 10 16 N/A
8:15 pm 20:15 Sunny 85 29.5 62 16.6 46 46 SE 12 19 29.62 1003 10 16 N/A
8:35 pm 20:35 Sunny 84 29 62 16.5 47 47 SE 10 17 29.64 1004 10 16 N/A
8:55 pm 20:55 Clear 84 28.8 62 16.4 47 47 SE 13 20 29.64 1004 10 16 N/A
9:15 pm 21:15 Clear 83 28.1 62 16.5 49 49 SSE 17 28 29.64 1004 10 16 N/A
9:35 pm 21:35 Clear 84 29.1 61 16.1 45 45 SSE 17 28 29.62 1003 10 16 N/A
9:55 pm 21:55 Clear with Nearby Thunderstorms 83 28.4 61 16.2 48 48 SSE 17 28 29.63 1003 10 16 N/A
10:15 pm 22:15 Clear 83 28.2 61 16.1 48 48 SSE 14 22 29.66 1005 10 16 N/A
10:35 pm 22:35 Clear with Nearby Thunderstorms 82 28 61 16.1 48 48 SSE 12 19 29.68 1005 10 16 N/A
10:55 pm 22:55 Clear with Thunderstorms 82 27.8 61 16.1 49 49 SSE 9 15 29.69 1005 10 16 N/A
11:15 pm 23:15 Partly Cloudy with Thunderstorms 82 28 61 16 48 48 SW 6 9 29.72 1006 10 16 N/A
11:35 pm 23:35 Mostly Cloudy with Thunderstorms 81 27.3 62 16.6 52 52 NW 8 13 29.77 1008 10 16 N/A
11:55 pm 23:55 Partly Cloudy with Thunderstorms 76 24.7 64 17.8 66 66 NE 8 13 29.78 1009 7 11 N/A

Powered by AerisWeather